Orbital Elements at Epoch 2459200.5 (2020-Dec-17.0) TDB
Reference: JPL 12 (heliocentric ecliptic J2000)
Element | Value | Uncertainty (1-sigma) | Units |
e | .1702448196490647 | 5.8802e-08 | |
a | 2.434673955979572 | 1.3002e-08 | au |
q | 2.020183327439555 | 1.4106e-07 | au |
i | 2.065974458834473 | 5.9676e-06 | deg |
node | 102.089146193774 | 0.00015645 | deg |
peri | 290.7928621838505 | 0.00015744 | deg |
M | 54.41808994254642 | 1.7756e-05 | deg |
tp | 2458990.750740957920 (2020-May-21.25074096) | 6.7889e-05 | TDB |
period | 1387.585145580644 3.80 | 1.1115e-05 3.043e-08 | d yr |
n | .2594435383994801 | 2.0783e-09 | deg/d |
Q | 2.849164584519589 | 1.5216e-08 | au |
|
| | Orbit Determination Parameters
Additional Information
|